"read_dt","SO2 (ppb)","flags","PMT voltage (V)","lamp voltage (V)","lamp intensity (Hz)","internal temp (C)","react chamber temp (C)","sample flow (l/min)","pres (mmHg)","SO2 bkg (ppb)","SO2 coefficient"
2013-08-29 00:00:00,2048E-4,5C000000,-0724,0939,11119,029.8,045.4,0.388,735.5,01.18,0.508
2013-08-29 00:01:00,2854E-4,5C000000,-0724,0939,11050,029.8,045.4,0.388,735.4,01.18,0.508
2013-08-29 00:02:00,2459E-4,5C000000,-0724,0940,11103,029.8,045.4,0.388,735.5,01.18,0.508
2013-08-29 00:03:00,2435E-4,5C000000,-0724,0938,11162,029.8,045.4,0.388,735.5,01.18,0.508
2013-08-29 00:04:00,2276E-4,5C000000,-0724,0939,11222,029.8,045.4,0.388,735.5,01.18,0.508
2013-08-29 00:05:00,2239E-4,5C000000,-0724,0939,11109,029.8,045.4,0.388,735.5,01.18,0.508
2013-08-29 00:06:00,1514E-4,5C000000,-0724,0940,11211,029.8,045.4,0.388,735.5,01.18,0.508
2013-08-29 00:07:00,1495E-4,5C000000,-0724,0939,11121,029.8,045.4,0.388,735.5,01.18,0.508
2013-08-29 00:08:00,1899E-4,5C000000,-0724,0939,11089,029.8,045.4,0.388,735.5,01.18,0.508
2013-08-29 00:09:00,1115E-4,5C000000,-0724,0939,11106,029.8,045.4,0.388,735.5,01.18,0.508
2013-08-29 00:10:00,1699E-4,5C000000,-0724,0941,11159,029.8,045.4,0.388,735.5,01.18,0.508
2013-08-29 00:11:00,2101E-4,5C000000,-0724,0940,11039,029.8,045.4,0.388,735.5,01.18,0.508
2013-08-29 00:12:00,1236E-4,5C000000,-0724,0939,11075,029.8,045.4,0.388,735.4,01.18,0.508
2013-08-29 00:13:00,2882E-4,5C000000,-0724,0940,11232,029.8,045.4,0.388,735.5,01.18,0.508
2013-08-29 00:14:00,2429E-4,5C000000,-0724,0940,11156,029.8,045.4,0.388,735.4,01.18,0.508
2013-08-29 00:15:00,2408E-4,5C000000,-0724,0939,11131,029.7,045.4,0.388,735.4,01.18,0.508
2013-08-29 00:16:00,2612E-4,5C000000,-0724,0939,11133,029.7,045.4,0.388,735.4,01.18,0.508
2013-08-29 00:17:00,2127E-4,5C000000,-0724,0939,11041,029.7,045.4,0.388,735.4,01.18,0.508
2013-08-29 00:18:00,1276E-4,5C000000,-0724,0939,11112,029.8,045.4,0.388,735.4,01.18,0.508
2013-08-29 00:19:00,1380E-4,5C000000,-0724,0939,10994,029.7,045.4,0.388,735.4,01.18,0.508
2013-08-29 00:20:00,1947E-4,5C000000,-0724,0938,11187,029.7,045.4,0.388,735.4,01.18,0.508
2013-08-29 00:21:00,1894E-4,5C000000,-0724,0938,11083,029.7,045.4,0.389,735.4,01.18,0.508
2013-08-29 00:22:00,2861E-4,5C000000,-0724,0938,11106,029.7,045.4,0.388,735.4,01.18,0.508
2013-08-29 00:23:00,2207E-4,5C000000,-0724,0940,11208,029.7,045.4,0.388,735.4,01.18,0.508
2013-08-29 00:24:00,1908E-4,5C000000,-0724,0938,11204,029.7,045.4,0.388,735.2,01.18,0.508
2013-08-29 00:25:00,2192E-4,5C000000,-0724,0938,11133,029.7,045.4,0.388,735.3,01.18,0.508
2013-08-29 00:26:00,2305E-4,5C000000,-0724,0939,11059,029.7,045.4,0.389,735.3,01.18,0.508
2013-08-29 00:27:00,2102E-4,5C000000,-0724,0939,11195,029.7,045.4,0.388,735.3,01.18,0.508
2013-08-29 00:28:00,8612E-5,5C000000,-0724,0939,11136,029.7,045.4,0.388,735.4,01.18,0.508
2013-08-29 00:29:00,1393E-4,5C000000,-0724,0939,10959,029.7,045.4,0.389,735.3,01.18,0.508
2013-08-29 00:30:00,2711E-4,5C000000,-0724,0939,11161,029.7,045.4,0.388,735.3,01.18,0.508
2013-08-29 00:31:00,2575E-4,5C000000,-0724,0939,11156,029.7,045.4,0.388,735.3,01.18,0.508
2013-08-29 00:32:00,2368E-4,5C000000,-0724,0940,11192,029.7,045.4,0.388,735.2,01.18,0.508
2013-08-29 00:33:00,1240E-4,5C000000,-0724,0939,11213,029.7,045.4,0.388,735.3,01.18,0.508
2013-08-29 00:34:00,3123E-4,5C000000,-0724,0940,11097,029.7,045.4,0.389,735.3,01.18,0.508
2013-08-29 00:35:00,2071E-4,5C000000,-0724,0941,11137,029.7,045.4,0.388,735.3,01.18,0.508
2013-08-29 00:36:00,2830E-4,5C000000,-0724,0940,10989,029.7,045.4,0.388,735.3,01.18,0.508
2013-08-29 00:37:00,1881E-4,5C000000,-0724,0939,11064,029.7,045.4,0.388,735.3,01.18,0.508
2013-08-29 00:38:00,2551E-4,5C000000,-0724,0940,11196,029.7,045.4,0.388,735.3,01.18,0.508
2013-08-29 00:39:00,1891E-4,5C000000,-0724,0939,11143,029.8,045.4,0.389,735.3,01.18,0.508
2013-08-29 00:40:00,2464E-4,5C000000,-0724,0941,11262,029.8,045.4,0.388,735.2,01.18,0.508
2013-08-29 00:41:00,2571E-4,5C000000,-0724,0940,11059,029.8,045.4,0.388,735.3,01.18,0.508
2013-08-29 00:42:00,2381E-4,5C000000,-0724,0940,11134,029.8,045.4,0.388,735.2,01.18,0.508
2013-08-29 00:43:00,2833E-4,5C000000,-0724,0941,11043,029.8,045.4,0.388,735.1,01.18,0.508
2013-08-29 00:44:00,1704E-4,5C000000,-0724,0940,11016,029.8,045.4,0.388,735.3,01.18,0.508
2013-08-29 00:45:00,2370E-4,5C000000,-0724,0939,11146,029.8,045.4,0.388,735.2,01.18,0.508
2013-08-29 00:46:00,2052E-4,5C000000,-0724,0940,10946,029.8,045.4,0.388,735.3,01.18,0.508
2013-08-29 00:47:00,1524E-4,5C000000,-0724,0940,11053,029.8,045.4,0.388,735.3,01.18,0.508
2013-08-29 00:48:00,1978E-4,5C000000,-0724,0940,11226,029.8,045.4,0.388,735.3,01.18,0.508
2013-08-29 00:49:00,2138E-4,5C000000,-0724,0938,11042,029.8,045.4,0.388,735.3,01.18,0.508
2013-08-29 00:50:00,1383E-4,5C000000,-0724,0940,11217,029.8,045.4,0.388,735.2,01.18,0.508
2013-08-29 00:51:00,2926E-4,5C000000,-0724,0940,11259,029.8,045.4,0.388,735.2,01.18,0.508
2013-08-29 00:52:00,2276E-4,5C000000,-0724,0940,11182,029.9,045.4,0.388,735.3,01.18,0.508
2013-08-29 00:53:00,1504E-4,5C000000,-0724,0940,11135,029.9,045.4,0.387,735.3,01.18,0.508
2013-08-29 00:54:00,2248E-4,5C000000,-0724,0939,11244,029.9,045.4,0.388,735.4,01.18,0.508
2013-08-29 00:55:00,2130E-4,5C000000,-0724,0940,11176,029.9,045.4,0.388,735.3,01.18,0.508
2013-08-29 00:56:00,2530E-4,5C000000,-0724,0939,11107,029.9,045.4,0.387,735.3,01.18,0.508
2013-08-29 00:57:00,2408E-4,5C000000,-0724,0939,10985,029.9,045.4,0.388,735.3,01.18,0.508
2013-08-29 00:58:00,3290E-4,5C000000,-0724,0940,11110,029.9,045.4,0.388,735.3,01.18,0.508
2013-08-29 00:59:00,2346E-4,5C000000,-0724,0941,11139,029.9,045.4,0.388,735.3,01.18,0.508
2013-08-29 01:00:00,2587E-4,5C000000,-0724,0939,11147,029.9,045.4,0.388,735.4,01.18,0.508
2013-08-29 01:01:00,2258E-4,5C000000,-0724,0939,11103,029.9,045.4,0.387,735.3,01.18,0.508
2013-08-29 01:02:00,3091E-4,5C000000,-0724,0940,11201,029.9,045.4,0.388,735.4,01.18,0.508
2013-08-29 01:03:00,1629E-4,5C000000,-0724,0940,11188,029.9,045.4,0.388,735.3,01.18,0.508
2013-08-29 01:04:00,2318E-4,5C000000,-0724,0940,11167,030.0,045.4,0.387,735.2,01.18,0.508
2013-08-29 01:05:00,3270E-4,5C000000,-0724,0940,11144,030.0,045.5,0.388,735.3,01.18,0.508
2013-08-29 01:06:00,2364E-4,5C000000,-0724,0941,11272,030.0,045.4,0.388,735.3,01.18,0.508
2013-08-29 01:07:00,2292E-4,5C000000,-0724,0941,11067,030.0,045.4,0.387,735.4,01.18,0.508
2013-08-29 01:08:00,1166E-4,5C000000,-0724,0940,11123,030.0,045.4,0.388,735.4,01.18,0.508
2013-08-29 01:09:00,1960E-4,5C000000,-0724,0940,11049,030.0,045.4,0.387,735.3,01.18,0.508
2013-08-29 01:10:00,1691E-4,5C000000,-0724,0940,11042,030.0,045.4,0.387,735.3,01.18,0.508
2013-08-29 01:11:00,2600E-4,5C000000,-0724,0940,11199,030.0,045.4,0.388,735.3,01.18,0.508
2013-08-29 01:12:00,2852E-4,5C000000,-0724,0940,11095,030.0,045.4,0.387,735.2,01.18,0.508
2013-08-29 01:13:00,2449E-4,5C000000,-0724,0939,11014,030.0,045.4,0.388,735.3,01.18,0.508
2013-08-29 01:14:00,2405E-4,5C000000,-0724,0940,11184,030.0,045.4,0.388,735.3,01.18,0.508
2013-08-29 01:15:00,2079E-4,5C000000,-0724,0941,11150,030.0,045.4,0.387,735.2,01.18,0.508
2013-08-29 01:16:00,2827E-4,5C000000,-0724,0940,11045,030.0,045.4,0.387,735.2,01.18,0.508
2013-08-29 01:17:00,2725E-4,5C000000,-0724,0940,10949,030.1,045.4,0.388,735.2,01.18,0.508
2013-08-29 01:18:00,3107E-4,5C000000,-0724,0940,11284,030.1,045.4,0.387,735.4,01.18,0.508
2013-08-29 01:19:00,2826E-4,5C000000,-0724,0939,11102,030.1,045.4,0.388,735.2,01.18,0.508
2013-08-29 01:20:00,2270E-4,5C000000,-0724,0941,11199,030.1,045.4,0.388,735.4,01.18,0.508
2013-08-29 01:21:00,2614E-4,5C000000,-0724,0941,11025,030.1,045.4,0.387,735.3,01.18,0.508
2013-08-29 01:22:00,2000E-4,5C000000,-0724,0939,11190,030.1,045.4,0.388,735.3,01.18,0.508
2013-08-29 01:23:00,1726E-4,5C000000,-0724,0941,10992,030.1,045.4,0.387,735.4,01.18,0.508
2013-08-29 01:24:00,2640E-4,5C000000,-0724,0939,10933,030.1,045.4,0.387,735.4,01.18,0.508
2013-08-29 01:25:00,1795E-4,5C000000,-0724,0940,11119,030.1,045.4,0.388,735.3,01.18,0.508
2013-08-29 01:26:00,2447E-4,5C000000,-0724,0941,11010,030.1,045.4,0.387,735.4,01.18,0.508
2013-08-29 01:27:00,2543E-4,5C000000,-0724,0939,11045,030.1,045.4,0.387,735.4,01.18,0.508
2013-08-29 01:28:00,2940E-4,5C000000,-0724,0941,11031,030.2,045.4,0.387,735.4,01.18,0.508
2013-08-29 01:29:00,1513E-4,5C000000,-0724,0939,11062,030.2,045.4,0.387,735.4,01.18,0.508
2013-08-29 01:30:00,2586E-4,5C000000,-0724,0939,11047,030.2,045.4,0.387,735.4,01.18,0.508
2013-08-29 01:31:00,1895E-4,5C000000,-0724,0941,11157,030.2,045.4,0.387,735.4,01.18,0.508
2013-08-29 01:32:00,1757E-4,5C000000,-0724,0939,11014,030.2,045.4,0.387,735.4,01.18,0.508
2013-08-29 01:33:00,2456E-4,5C000000,-0724,0939,11128,030.2,045.5,0.387,735.5,01.18,0.508
2013-08-29 01:34:00,3355E-4,5C000000,-0724,0939,11170,030.2,045.4,0.387,735.4,01.18,0.508
2013-08-29 01:35:00,2486E-4,5C000000,-0724,0941,11145,030.2,045.4,0.387,735.4,01.18,0.508
2013-08-29 01:36:00,2411E-4,5C000000,-0724,0940,11160,030.2,045.4,0.387,735.4,01.18,0.508
2013-08-29 01:37:00,2883E-4,5C000000,-0724,0938,11007,030.2,045.4,0.387,735.4,01.18,0.508
2013-08-29 01:38:00,1544E-4,5C000000,-0724,0940,11064,030.2,045.4,0.387,735.3,01.18,0.508
2013-08-29 01:39:00,2304E-4,5C000000,-0724,0939,11180,030.2,045.4,0.387,735.4,01.18,0.508
2013-08-29 01:40:00,2414E-4,5C000000,-0724,0940,11079,030.2,045.4,0.387,735.4,01.18,0.508
2013-08-29 01:41:00,1775E-4,5C000000,-0724,0939,11165,030.3,045.4,0.387,735.3,01.18,0.508
2013-08-29 01:42:00,1822E-4,5C000000,-0724,0938,11210,030.3,045.4,0.387,735.3,01.18,0.508
2013-08-29 01:43:00,2339E-4,5C000000,-0724,0939,10997,030.3,045.4,0.387,735.3,01.18,0.508
2013-08-29 01:44:00,1551E-4,5C000000,-0724,0939,11056,030.3,045.4,0.387,735.4,01.18,0.508
2013-08-29 01:45:00,1269E-4,5C000000,-0724,0942,11050,030.3,045.4,0.387,735.3,01.18,0.508
2013-08-29 01:46:00,1387E-4,5C000000,-0724,0940,10922,030.3,045.4,0.387,735.4,01.18,0.508
2013-08-29 01:47:00,2996E-4,5C000000,-0724,0941,10975,030.3,045.4,0.387,735.2,01.18,0.508
2013-08-29 01:48:00,1983E-4,5C000000,-0724,0940,11176,030.3,045.4,0.387,735.3,01.18,0.508
2013-08-29 01:49:00,1066E-4,5C000000,-0724,0940,11033,030.3,045.4,0.387,735.3,01.18,0.508
2013-08-29 01:50:00,1645E-4,5C000000,-0724,0940,11104,030.3,045.4,0.387,735.2,01.18,0.508
2013-08-29 01:51:00,3004E-4,5C000000,-0724,0941,11164,030.3,045.4,0.387,735.2,01.18,0.508
2013-08-29 01:52:00,2511E-4,5C000000,-0724,0941,11181,030.3,045.4,0.387,735.1,01.18,0.508
2013-08-29 01:53:00,1681E-4,5C000000,-0724,0942,11179,030.4,045.4,0.387,735.2,01.18,0.508
2013-08-29 01:54:00,1454E-4,5C000000,-0724,0941,11192,030.3,045.5,0.387,735.3,01.18,0.508
2013-08-29 01:55:00,1750E-4,5C000000,-0724,0942,11230,030.3,045.4,0.387,735.3,01.18,0.508
2013-08-29 01:56:00,1993E-4,5C000000,-0724,0941,11088,030.4,045.4,0.387,735.2,01.18,0.508
2013-08-29 01:57:00,2209E-4,5C000000,-0724,0940,11125,030.4,045.4,0.386,735.3,01.18,0.508
2013-08-29 01:58:00,2766E-4,5C000000,-0724,0941,11040,030.4,045.4,0.387,735.2,01.18,0.508
2013-08-29 01:59:00,1694E-4,5C000000,-0724,0942,11133,030.4,045.4,0.387,735.4,01.18,0.508
2013-08-29 02:00:00,1893E-4,5C000000,-0724,0941,11061,030.4,045.5,0.386,735.3,01.18,0.508
2013-08-29 02:01:00,1518E-4,5C000000,-0724,0941,11193,030.4,045.5,0.387,735.4,01.18,0.508
2013-08-29 02:02:00,1837E-4,5C000000,-0724,0941,11062,030.4,045.4,0.387,735.4,01.18,0.508
2013-08-29 02:03:00,2357E-4,5C000000,-0724,0940,10971,030.4,045.4,0.386,735.3,01.18,0.508
2013-08-29 02:04:00,1347E-4,5C000000,-0724,0942,11006,030.4,045.5,0.387,735.3,01.18,0.508
2013-08-29 02:05:00,1717E-4,5C000000,-0724,0941,11078,030.4,045.4,0.387,735.4,01.18,0.508
2013-08-29 02:06:00,2191E-4,5C000000,-0724,0941,11337,030.4,045.5,0.387,735.4,01.18,0.508
2013-08-29 02:07:00,7289E-5,5C000000,-0724,0941,11190,030.4,045.4,0.386,735.4,01.18,0.508
2013-08-29 02:08:00,2026E-4,5C000000,-0724,0940,11175,030.4,045.4,0.387,735.5,01.18,0.508
2013-08-29 02:09:00,1800E-4,5C000000,-0724,0940,11134,030.5,045.5,0.387,735.3,01.18,0.508
2013-08-29 02:10:00,1546E-4,5C000000,-0724,0941,11264,030.5,045.4,0.386,735.4,01.18,0.508
2013-08-29 02:11:00,1563E-4,5C000000,-0724,0940,11077,030.5,045.4,0.387,735.3,01.18,0.508
2013-08-29 02:12:00,2058E-4,5C000000,-0724,0939,11196,030.5,045.4,0.387,735.4,01.18,0.508
2013-08-29 02:13:00,2797E-4,5C000000,-0724,0940,11178,030.5,045.4,0.387,735.3,01.18,0.508
2013-08-29 02:14:00,1534E-4,5C000000,-0724,0940,11079,030.5,045.4,0.386,735.4,01.18,0.508
2013-08-29 02:15:00,2223E-4,5C000000,-0724,0940,11051,030.5,045.4,0.387,735.3,01.18,0.508
2013-08-29 02:16:00,1894E-4,5C000000,-0724,0940,10988,030.5,045.4,0.387,735.4,01.18,0.508
2013-08-29 02:17:00,2517E-4,5C000000,-0724,0940,11067,030.5,045.4,0.386,735.3,01.18,0.508
2013-08-29 02:18:00,1961E-4,5C000000,-0724,0941,11188,030.5,045.4,0.386,735.2,01.18,0.508
2013-08-29 02:19:00,3309E-4,5C000000,-0724,0941,11202,030.5,045.4,0.387,735.3,01.18,0.508
2013-08-29 02:20:00,1902E-4,5C000000,-0724,0940,11087,030.5,045.5,0.387,735.3,01.18,0.508
2013-08-29 02:21:00,2648E-4,5C000000,-0724,0942,11183,030.5,045.5,0.386,735.3,01.18,0.508
2013-08-29 02:22:00,1519E-4,5C000000,-0724,0942,11190,030.5,045.5,0.387,735.3,01.18,0.508
2013-08-29 02:23:00,1908E-4,5C000000,-0724,0942,11195,030.5,045.4,0.387,735.1,01.18,0.508
2013-08-29 02:24:00,3269E-4,5C000000,-0724,0941,10875,030.5,045.4,0.386,735.3,01.18,0.508
2013-08-29 02:25:00,2724E-4,5C000000,-0724,0941,11008,030.5,045.5,0.386,735.2,01.18,0.508
2013-08-29 02:26:00,2076E-4,5C000000,-0724,0942,11224,030.5,045.5,0.387,735.2,01.18,0.508
2013-08-29 02:27:00,2239E-4,5C000000,-0724,0940,11040,030.6,045.5,0.387,735.1,01.18,0.508
2013-08-29 02:28:00,2570E-4,5C000000,-0724,0942,10942,030.5,045.5,0.386,735.3,01.18,0.508
2013-08-29 02:29:00,3342E-4,5C000000,-0724,0942,11154,030.6,045.5,0.386,735.2,01.18,0.508
2013-08-29 02:30:00,1660E-4,5C000000,-0724,0942,11286,030.6,045.5,0.387,735.2,01.18,0.508
2013-08-29 02:31:00,2830E-4,5C000000,-0724,0941,11120,030.5,045.4,0.386,735.3,01.18,0.508
2013-08-29 02:32:00,3512E-4,5C000000,-0724,0941,11138,030.6,045.4,0.386,735.3,01.18,0.508
2013-08-29 02:33:00,2395E-4,5C000000,-0724,0942,11145,030.6,045.5,0.387,735.3,01.18,0.508
2013-08-29 02:34:00,2438E-4,5C000000,-0724,0941,11202,030.6,045.5,0.387,735.3,01.18,0.508
2013-08-29 02:35:00,2662E-4,5C000000,-0724,0941,11078,030.6,045.5,0.386,735.3,01.18,0.508
2013-08-29 02:36:00,2481E-4,5C000000,-0724,0940,10987,030.6,045.4,0.386,735.3,01.18,0.508
2013-08-29 02:37:00,2371E-4,5C000000,-0724,0940,11056,030.6,045.4,0.386,735.3,01.18,0.508
2013-08-29 02:38:00,2833E-4,5C000000,-0724,0941,11183,030.6,045.5,0.387,735.3,01.18,0.508
2013-08-29 02:39:00,1389E-4,5C000000,-0724,0940,11225,030.6,045.4,0.386,735.3,01.18,0.508
2013-08-29 02:40:00,3328E-4,5C000000,-0724,0940,11183,030.6,045.4,0.386,735.3,01.18,0.508
2013-08-29 02:41:00,2648E-4,5C000000,-0724,0941,11264,030.6,045.5,0.386,735.2,01.18,0.508
2013-08-29 02:42:00,2456E-4,5C000000,-0724,0942,11020,030.6,045.4,0.387,735.2,01.18,0.508
2013-08-29 02:43:00,2535E-4,5C000000,-0724,0941,11236,030.6,045.4,0.386,735.1,01.18,0.508
2013-08-29 02:44:00,2513E-4,5C000000,-0724,0941,11272,030.6,045.4,0.386,735.2,01.18,0.508
2013-08-29 02:45:00,2647E-4,5C000000,-0724,0941,11226,030.6,045.4,0.386,735.2,01.18,0.508
2013-08-29 02:46:00,2008E-4,5C000000,-0724,0943,11171,030.6,045.5,0.387,735.2,01.18,0.508
2013-08-29 02:47:00,2024E-4,5C000000,-0724,0941,11137,030.6,045.4,0.386,735.2,01.18,0.508
2013-08-29 02:48:00,1850E-4,5C000000,-0724,0942,10993,030.6,045.4,0.386,735.1,01.18,0.508
2013-08-29 02:49:00,2033E-4,5C000000,-0724,0940,11180,030.6,045.5,0.386,735.2,01.18,0.508
2013-08-29 02:50:00,2941E-4,5C000000,-0724,0942,11212,030.6,045.5,0.386,735.2,01.18,0.508
2013-08-29 02:51:00,3105E-4,5C000000,-0724,0941,10961,030.6,045.5,0.387,735.1,01.18,0.508
2013-08-29 02:52:00,2728E-4,5C000000,-0724,0941,11135,030.6,045.4,0.386,735.1,01.18,0.508
2013-08-29 02:53:00,1937E-4,5C000000,-0724,0942,11148,030.6,045.4,0.386,735.1,01.18,0.508
2013-08-29 02:54:00,2471E-4,5C000000,-0724,0941,11030,030.6,045.5,0.386,735.2,01.18,0.508
2013-08-29 02:55:00,2150E-4,5C000000,-0724,0941,10985,030.6,045.5,0.387,735.2,01.18,0.508
2013-08-29 02:56:00,2253E-4,5C000000,-0724,0942,10886,030.6,045.4,0.386,735.2,01.18,0.508
2013-08-29 02:57:00,2364E-4,5C000000,-0724,0942,11119,030.6,045.5,0.386,735.2,01.18,0.508
2013-08-29 02:58:00,3489E-4,5C000000,-0724,0942,11111,030.7,045.5,0.386,735.2,01.18,0.508
2013-08-29 02:59:00,1958E-4,5C000000,-0724,0941,11207,030.7,045.4,0.387,735.2,01.18,0.508
2013-08-29 03:00:00,2190E-4,5C000000,-0724,0942,10983,030.7,045.5,0.386,735.2,01.18,0.508
2013-08-29 03:01:00,1620E-4,5C000000,-0724,0941,11171,030.7,045.5,0.386,735.2,01.18,0.508
2013-08-29 03:02:00,2093E-4,5C000000,-0724,0941,11161,030.7,045.4,0.386,735.2,01.18,0.508
2013-08-29 03:03:00,2401E-4,5C000000,-0724,0941,11146,030.7,045.5,0.386,735.2,01.18,0.508
2013-08-29 03:04:00,2393E-4,5C000000,-0724,0940,11146,030.7,045.5,0.386,735.2,01.18,0.508
2013-08-29 03:05:00,1699E-4,5C000000,-0724,0939,10957,030.7,045.5,0.386,735.2,01.18,0.508
2013-08-29 03:06:00,2077E-4,5C000000,-0724,0943,10987,030.7,045.4,0.386,735.2,01.18,0.508
2013-08-29 03:07:00,2119E-4,5C000000,-0724,0942,11050,030.7,045.4,0.386,735.3,01.18,0.508
2013-08-29 03:08:00,2804E-4,5C000000,-0724,0942,11096,030.7,045.5,0.386,735.3,01.18,0.508
2013-08-29 03:09:00,2686E-4,5C000000,-0724,0942,10996,030.7,045.5,0.386,735.3,01.18,0.508
2013-08-29 03:10:00,2287E-4,5C000000,-0724,0941,11086,030.7,045.5,0.386,735.3,01.18,0.508
2013-08-29 03:11:00,2143E-4,5C000000,-0724,0941,11213,030.7,045.5,0.386,735.3,01.18,0.508
2013-08-29 03:12:00,1427E-4,5C000000,-0724,0942,11182,030.7,045.5,0.386,735.2,01.18,0.508
2013-08-29 03:13:00,2248E-4,5C000000,-0724,0942,11084,030.7,045.5,0.386,735.2,01.18,0.508
2013-08-29 03:14:00,1864E-4,5C000000,-0724,0943,10777,030.7,045.5,0.386,735.2,01.18,0.508
2013-08-29 03:15:00,1839E-4,5C000000,-0724,0942,11115,030.7,045.5,0.386,735.2,01.18,0.508
2013-08-29 03:16:00,2651E-4,5C000000,-0724,0942,11123,030.7,045.5,0.386,735.2,01.18,0.508
2013-08-29 03:17:00,1665E-4,5C000000,-0724,0942,11181,030.8,045.4,0.386,735.2,01.18,0.508
2013-08-29 03:18:00,2979E-4,5C000000,-0724,0941,11151,030.8,045.4,0.386,735.2,01.18,0.508
2013-08-29 03:19:00,2255E-4,5C000000,-0724,0943,11205,030.8,045.5,0.386,735.2,01.18,0.508
2013-08-29 03:20:00,2310E-4,5C000000,-0724,0942,11130,030.8,045.5,0.386,735.2,01.18,0.508
2013-08-29 03:21:00,2456E-4,5C000000,-0724,0941,11159,030.7,045.5,0.386,735.2,01.18,0.508
2013-08-29 03:22:00,2324E-4,5C000000,-0724,0942,11066,030.8,045.5,0.386,735.2,01.18,0.508
2013-08-29 03:23:00,2121E-4,5C000000,-0724,0941,11038,030.8,045.4,0.386,735.1,01.18,0.508
2013-08-29 03:24:00,2692E-4,5C000000,-0724,0941,11020,030.8,045.4,0.386,735.1,01.18,0.508
2013-08-29 03:25:00,2490E-4,5C000000,-0724,0941,10891,030.8,045.5,0.386,735.2,01.18,0.508
2013-08-29 03:26:00,2452E-4,5C000000,-0724,0942,11128,030.8,045.5,0.386,735.1,01.18,0.508
2013-08-29 03:27:00,1186E-4,5C000000,-0724,0942,11121,030.8,045.5,0.386,735.1,01.18,0.508
2013-08-29 03:28:00,2225E-4,5C000000,-0724,0942,11136,030.8,045.5,0.386,735.1,01.18,0.508
2013-08-29 03:29:00,2451E-4,5C000000,-0724,0941,11201,030.8,045.5,0.386,735.1,01.18,0.508
2013-08-29 03:30:00,2281E-4,5C000000,-0724,0942,11117,030.8,045.5,0.386,735.1,01.18,0.508
2013-08-29 03:31:00,2387E-4,5C000000,-0724,0941,11153,030.8,045.4,0.385,735.0,01.18,0.508
2013-08-29 03:32:00,2296E-4,5C000000,-0724,0940,11151,030.8,045.5,0.386,735.0,01.18,0.508
2013-08-29 03:33:00,2216E-4,5C000000,-0724,0941,11087,030.8,045.5,0.386,735.1,01.18,0.508
2013-08-29 03:34:00,2994E-4,5C000000,-0724,0941,11053,030.8,045.5,0.386,735.0,01.18,0.508
2013-08-29 03:35:00,1212E-4,5C000000,-0724,0942,11046,030.8,045.4,0.386,735.0,01.18,0.508
2013-08-29 03:36:00,2388E-4,5C000000,-0724,0941,11178,030.8,045.5,0.386,734.9,01.18,0.508
2013-08-29 03:37:00,2359E-4,5C000000,-0724,0941,11160,030.8,045.5,0.386,735.0,01.18,0.508
2013-08-29 03:38:00,2008E-4,5C000000,-0724,0942,11101,030.8,045.5,0.386,735.0,01.18,0.508
2013-08-29 03:39:00,1571E-4,5C000000,-0724,0941,11063,030.8,045.5,0.386,735.0,01.18,0.508
2013-08-29 03:40:00,1252E-4,5C000000,-0724,0942,11144,030.8,045.4,0.386,735.0,01.18,0.508
2013-08-29 03:41:00,1818E-4,5C000000,-0724,0941,11086,030.8,045.4,0.386,735.0,01.18,0.508
2013-08-29 03:42:00,1917E-4,5C000000,-0724,0942,11152,030.7,045.5,0.386,734.9,01.18,0.508
2013-08-29 03:43:00,2364E-4,5C000000,-0724,0941,11109,030.7,045.5,0.386,734.9,01.18,0.508
2013-08-29 03:44:00,2286E-4,5C000000,-0724,0942,10810,030.7,045.5,0.386,734.9,01.18,0.508
2013-08-29 03:45:00,2836E-4,5C000000,-0724,0942,11173,030.7,045.4,0.386,734.9,01.18,0.508
2013-08-29 03:46:00,2052E-4,5C000000,-0724,0941,11029,030.7,045.5,0.386,735.0,01.18,0.508
2013-08-29 03:47:00,2399E-4,5C000000,-0724,0942,11039,030.7,045.5,0.386,734.9,01.18,0.508
2013-08-29 03:48:00,1536E-4,5C000000,-0724,0943,11246,030.7,045.5,0.386,734.9,01.18,0.508
2013-08-29 03:49:00,2743E-4,5C000000,-0724,0942,11091,030.6,045.5,0.386,734.9,01.18,0.508
2013-08-29 03:50:00,1786E-4,5C000000,-0724,0941,11055,030.6,045.5,0.386,734.8,01.18,0.508
2013-08-29 03:51:00,2899E-4,5C000000,-0724,0941,11163,030.6,045.5,0.386,734.9,01.18,0.508
2013-08-29 03:52:00,1840E-4,5C000000,-0724,0941,11022,030.6,045.4,0.386,734.8,01.18,0.508
2013-08-29 03:53:00,2434E-4,5C000000,-0724,0941,11229,030.6,045.4,0.386,734.8,01.18,0.508
2013-08-29 03:54:00,2192E-4,5C000000,-0724,0941,11163,030.6,045.4,0.386,734.8,01.18,0.508
2013-08-29 03:55:00,2203E-4,5C000000,-0724,0942,11079,030.6,045.5,0.386,734.8,01.18,0.508
2013-08-29 03:56:00,2151E-4,5C000000,-0724,0941,11028,030.6,045.5,0.386,734.9,01.18,0.508
2013-08-29 03:57:00,2337E-4,5C000000,-0724,0942,11071,030.6,045.4,0.387,734.8,01.18,0.508
2013-08-29 03:58:00,1880E-4,5C000000,-0724,0941,11096,030.6,045.4,0.386,734.8,01.18,0.508
2013-08-29 03:59:00,1253E-4,5C000000,-0724,0941,11093,030.6,045.4,0.386,734.8,01.18,0.508
2013-08-29 04:00:00,2180E-4,5C000000,-0724,0941,11118,030.5,045.4,0.387,734.8,01.18,0.508
2013-08-29 04:01:00,2184E-4,5C000000,-0724,0941,11089,030.5,045.4,0.386,734.8,01.18,0.508
2013-08-29 04:02:00,2336E-4,5C000000,-0724,0941,11114,030.5,045.5,0.386,734.8,01.18,0.508
2013-08-29 04:03:00,1698E-4,5C000000,-0724,0940,11056,030.6,045.4,0.387,734.8,01.18,0.508
2013-08-29 04:04:00,2112E-4,5C000000,-0724,0941,11008,030.5,045.5,0.386,734.8,01.18,0.508
2013-08-29 04:05:00,1609E-4,5C000000,-0724,0941,11178,030.5,045.5,0.386,734.9,01.18,0.508
2013-08-29 04:06:00,1490E-4,5C000000,-0724,0941,10894,030.5,045.5,0.387,734.8,01.18,0.508
2013-08-29 04:07:00,1750E-4,5C000000,-0724,0942,11032,030.5,045.5,0.387,734.8,01.18,0.508
2013-08-29 04:08:00,2293E-4,5C000000,-0724,0941,11199,030.5,045.5,0.386,734.9,01.18,0.508
2013-08-29 04:09:00,1552E-4,5C000000,-0724,0941,10977,030.5,045.5,0.387,734.8,01.18,0.508
2013-08-29 04:10:00,2429E-4,5C000000,-0724,0942,11218,030.6,045.5,0.386,734.8,01.18,0.508
2013-08-29 04:11:00,1779E-4,5C000000,-0724,0941,11137,030.6,045.5,0.386,734.8,01.18,0.508
2013-08-29 04:12:00,2859E-4,5C000000,-0724,0942,11056,030.6,045.5,0.387,734.8,01.18,0.508
2013-08-29 04:13:00,1665E-4,5C000000,-0724,0941,11107,030.6,045.5,0.386,734.7,01.18,0.508
2013-08-29 04:14:00,2547E-4,5C000000,-0724,0942,10931,030.6,045.5,0.386,734.8,01.18,0.508
2013-08-29 04:15:00,1514E-4,5C000000,-0724,0943,11073,030.6,045.4,0.387,734.7,01.18,0.508
2013-08-29 04:16:00,2143E-4,5C000000,-0724,0941,11159,030.6,045.4,0.386,734.8,01.18,0.508
2013-08-29 04:17:00,3283E-4,5C000000,-0724,0942,11008,030.6,045.4,0.386,734.7,01.18,0.508
2013-08-29 04:18:00,2921E-4,5C000000,-0724,0941,11027,030.6,045.4,0.387,734.7,01.18,0.508
2013-08-29 04:19:00,1979E-4,5C000000,-0724,0941,11170,030.6,045.4,0.386,734.8,01.18,0.508
2013-08-29 04:20:00,1958E-4,5C000000,-0724,0941,11082,030.7,045.5,0.386,734.7,01.18,0.508